Flag for Canada Weather past 2 weeks in Igloolik, Nunavut, Canada

Now
39 °F

Overcast.


Feels Like: 32 °F
Forecast: 42 / 50 °F
Wind: 10 mph from North

Location: Hall Beach

Current Time: Aug 29, 2015 at 6:15:12 AM

Latest Report: Aug 29, 2015 at 5:00 AM


Visibility: 9 mi

Pressure: 29.75 "Hg

Humidity: 100%

Dew point: 39 °F

Location of IgloolikLocation

Historic Weather in Igloolik — Graph

°F

Igloolik temperature yesterday

Maximum temperature yesterday: 43 °F (at 2:00 PM)
Minimum temperature yesterday: 41 °F (at 12:00 AM)
Average temperature yesterday: 42 °F

Past Weeks' High & Low Weather Summary

 TemperatureHumidityPressure
High50 °F (Aug 19, 4:00 PM)100% (Aug 14, 7:00 AM)30.32 "Hg (Aug 14, 7:00 AM)
Low37 °F (Aug 14, 9:00 PM)62% (Aug 25, 1:00 PM)29.27 "Hg (Aug 14, 10:00 AM)
Average42 °F90%29.84 "Hg
* Reported Aug 14 4:00 AM — Aug 29 4:02 AM, Igloolik, Weather by CustomWeather, © 2015

Note: Actual official high and low records may vary slightly from our data, if they occured in-between our weather recording intervals... More about our weather records

Advertising

Igloolik weather history for previous 24 hours

 ConditionsComfort  
Time TempWeatherWind HumidityBarometerVisibility
4:02 AM
Sat, Aug 29
39 °FLow clouds.14 mph100%29.74 "Hg9 mi
3:00 AM41 °FLow clouds.14 mph93%29.72 "Hg9 mi
2:00 AM41 °FMostly cloudy.15 mph93%29.70 "Hg9 mi
1:00 AM41 °FLight rain. Mostly cloudy.14 mph93%29.69 "Hg9 mi
12:00 AM41 °FOvercast.14 mph93%29.67 "Hg9 mi
11:00 PM
Fri, Aug 28
41 °FOvercast.15 mph93%29.66 "Hg9 mi
10:00 PM41 °FMore clouds than sun.14 mph93%29.65 "Hg9 mi
9:00 PM43 °FOvercast.15 mph87%29.65 "Hg9 mi
8:00 PM43 °FMostly cloudy.12 mph87%29.63 "Hg15 mi
7:00 PM43 °FBroken clouds.10 mph93%29.61 "Hg15 mi
6:00 PM43 °FMostly cloudy.10 mph93%29.61 "Hg15 mi
5:00 PM43 °FMore clouds than sun.9 mph93%29.59 "Hg15 mi
4:00 PM43 °FCloudy.12 mph93%29.59 "Hg14 mi
3:48 PM43 °FCloudy.12 mph93%29.59 "Hg12 mi
3:00 PM43 °FDrizzle. Overcast.13 mph93%29.59 "Hg12 mi
2:00 PM43 °FOvercast.14 mph93%29.58 "Hg15 mi
1:00 PM41 °FLight rain. More clouds than sun.13 mph100%29.57 "Hg15 mi
12:00 PM41 °FLight rain. Mostly cloudy.14 mph100%29.56 "Hg15 mi
11:00 AM41 °FLight rain. Mostly cloudy.12 mph100%29.55 "Hg15 mi
10:00 AM41 °FLight rain. Mostly cloudy.15 mph93%29.55 "Hg15 mi
9:00 AM41 °FLight rain. Mostly cloudy.14 mph93%29.55 "Hg15 mi
8:00 AM41 °FLight rain. Mostly cloudy.14 mph93%29.54 "Hg15 mi
7:57 AM41 °FLight rain. Mostly cloudy.14 mph93%29.54 "Hg9 mi
7:00 AM41 °FLight rain. Overcast.15 mph93%29.54 "Hg9 mi
6:00 AM41 °FMostly cloudy.15 mph93%29.54 "Hg9 mi
Weather by CustomWeather, © 2015

See weather overviewHow to use our weather pages